Location: Unspecified
(0.0000°N, 0.0000°E)
Time: 22:17:08
(UTC+01:00)

Cosmos 1782 Rocket - Visible Passes

Search period start: 18 November 2018 00:00
Search period end: 28 November 2018 00:00
Orbit: 607 x 632 km, 82.5° (Epoch: 17 November)

Date Brightness Start Highest point End Pass type
(mag) Time Alt. Az. Time Alt. Az. Time Alt. Az.
22 Nov 6.1 20:31:24 10° SSE 20:31:24 10° SSE 20:31:24 10° SSE visible
23 Nov 5.4 20:47:29 24° S 20:47:29 24° S 20:49:15 10° S visible
24 Nov 5.2 21:03:20 33° SW 21:03:20 33° SW 21:06:26 10° SSW visible
25 Nov 5.0 19:41:50 18° E 19:42:11 18° E 19:45:15 10° SE visible
25 Nov 6.2 21:18:51 16° WNW 21:19:46 17° W 21:22:43 10° SW visible
26 Nov 3.9 19:56:53 19° NNE 19:59:41 41° E 20:03:52 10° SSE visible
27 Nov 3.6 20:12:43 10° N 20:17:10 83° W 20:21:38 10° S visible
